Weather History for KTAD - January, 2013

Change the Weather History Date:

Saturday, January 26, 2013

  Actual Average Record
Temperature  
Mean Temperature 45 °F 33 °F  
Max Temperature 63 °F 48 °F 76 °F (1982)
Min Temperature 26 °F 18 °F -2 °F (1963)
Degree Days  
Heating Degree Days 20 32  
Month to date heating degree days 863 852  
Since 1 July heating degree days 2912 3120  
Cooling Degree Days 0 0  
Month to date cooling degree days 0 0  
Year to date cooling degree days 0 0  
Moisture  
Dew Point 28 °F    
Average Humidity 49    
Maximum Humidity 69    
Minimum Humidity 29    
Precipitation  
Precipitation 0.00 in 0.01 in 0.18 in (1979)
Month to date precipitation 0.03 0.33  
Year to date precipitation 0.03 0.33  
Sea Level Pressure  
Sea Level Pressure 29.85 in    
Wind  
Wind Speed 10 mph (SW)    
Max Wind Speed 25 mph    
Max Gust Speed 31 mph    
Visibility 10 miles    
Events      
T = Trace of Precipitation, MM = Missing Value Source: NWS Daily Summary

Daily Weather History Graph

Daily Weather History Graph

Search for Another Location

Airport or City:

Trip Planner

Search our weather history database for the weather conditions in past years. The results will help you decide how hot, cold, wet, or windy it might be!

Date:

Astronomy

Jan. 26, 2013 Rise Set
Actual Time 7:04 AM MST 5:15 PM MST
Civil Twilight 6:36 AM MST 5:43 PM MST
Nautical Twilight 6:05 AM MST 6:14 PM MST
Astronomical Twilight 5:34 AM MST 6:45 PM MST
Moon 5:11 PM MST (1/26) 6:24 AM MST (1/26)
Length of Visible Light 11h 06m
Length of Day
10h 11m
Full, 100% of the Moon is Illuminated
Jan 26
Full
Jan 26
Full
Feb 3
Last Quarter
Feb 10
New
Feb 17
First Quarter

Hourly Weather History & Observations

Time (MST) Temp. Windchill Dew Point Humidity Pressure Visibility Wind Dir Wind Speed Gust Speed Precip Events Conditions
12:54 AM 34.0 °F 26.0 °F 19.0 °F 54% 30.00 in 10.0 mi West 10.4 mph - N/A   Clear
1:54 AM 30.0 °F 21.1 °F 18.0 °F 61% 29.99 in 10.0 mi West 10.4 mph - N/A   Clear
2:54 AM 27.0 °F 18.7 °F 17.1 °F 66% 29.99 in 10.0 mi NW 8.1 mph - N/A   Clear
3:54 AM 28.0 °F 20.0 °F 19.0 °F 69% 29.98 in 10.0 mi WNW 8.1 mph - N/A   Clear
4:54 AM 28.0 °F 19.3 °F 19.0 °F 69% 30.00 in 10.0 mi West 9.2 mph - N/A   Clear
5:54 AM 28.0 °F 19.3 °F 19.9 °F 72% 30.02 in 10.0 mi West 9.2 mph - N/A   Clear
6:54 AM 32.0 °F 23.6 °F 21.9 °F 66% 30.02 in 10.0 mi WSW 10.4 mph - N/A   Clear
7:54 AM 37.0 °F 28.5 °F 24.1 °F 59% 29.99 in 10.0 mi WSW 13.8 mph - N/A   Clear
8:54 AM 44.1 °F 38.6 °F 26.1 °F 49% 29.96 in 10.0 mi WSW 10.4 mph - N/A   Clear
9:54 AM 50.0 °F - 26.1 °F 39% 29.93 in 10.0 mi WNW 4.6 mph - N/A   Partly Cloudy
10:54 AM 53.1 °F - 26.1 °F 35% 29.91 in 10.0 mi East 5.8 mph - N/A   Clear
11:54 AM 57.9 °F - 27.0 °F 31% 29.88 in 10.0 mi NE 3.5 mph - N/A   Clear
12:54 PM 60.1 °F - 28.0 °F 30% 29.81 in 10.0 mi ENE 6.9 mph - N/A   Clear
1:54 PM 61.0 °F - 28.0 °F 29% 29.79 in 10.0 mi Variable 5.8 mph - N/A   Partly Cloudy
2:54 PM 62.1 °F - 33.1 °F 34% 29.77 in 10.0 mi South 15.0 mph - N/A   Clear
3:54 PM 61.0 °F - 35.1 °F 38% 29.75 in 10.0 mi South 10.4 mph - N/A   Mostly Cloudy
4:54 PM 55.9 °F - 39.0 °F 53% 29.75 in 10.0 mi SSE 8.1 mph - N/A   Overcast
5:54 PM 53.1 °F - 39.0 °F 59% 29.75 in 10.0 mi SSE 10.4 mph - N/A   Scattered Clouds
6:54 PM 51.1 °F - 37.0 °F 59% 29.74 in 10.0 mi SW 13.8 mph - N/A   Clear
7:54 PM 50.0 °F - 37.0 °F 61% 29.73 in 10.0 mi South 10.4 mph - N/A   Partly Cloudy
8:54 PM 51.1 °F - 39.9 °F 66% 29.68 in 10.0 mi SSE 15.0 mph - N/A   Partly Cloudy
9:54 PM 48.9 °F - 37.9 °F 66% 29.69 in 10.0 mi SSW 8.1 mph - N/A   Partly Cloudy
10:54 PM 48.0 °F - 30.0 °F 50% 29.66 in 10.0 mi South 10.4 mph - N/A   Clear
11:54 PM 51.1 °F - 26.1 °F 38% 29.60 in 10.0 mi WSW 24.2 mph 31.1 mph N/A   Clear